Nome, AK

5:02 PM AKDT on July 22, 2017 (GMT -0800)
Nome

Weather History for PAOM - October, 2013

Change the Weather History Date:

Saturday, October 19, 2013

  Actual Average Record
Temperature  
Mean Temperature 42 °F 27 °F  
Max Temperature 43 °F 33 °F 44 °F (2004)
Min Temperature 40 °F 22 °F 0 °F (1928)
Degree Days  
Heating Degree Days 23 38  
Month to date heating degree days 541 638  
Since 1 July heating degree days 2061 2164  
Cooling Degree Days 0 0  
Month to date cooling degree days 0 0  
Year to date cooling degree days 7 3  
Moisture  
Dew Point 39 °F    
Average Humidity 0    
Maximum Humidity 0    
Minimum Humidity 0    
Precipitation  
Precipitation 0.06 in 0.05 in 0.35 in (1956)
Month to date precipitation 2.63 1.08  
Year to date precipitation 17.72 13.98  
Snow  
Snow 0.00 in 0.20 in 3.50 in (1956)
Month to date snowfall 0.2 2.0  
Since 1 July snowfall 1.3 2.6  
Since 1 September snowfall 1.3 2.6  
Snow Depth -    
Sea Level Pressure  
Sea Level Pressure 29.12 in    
Wind  
Wind Speed 12 mph (East)    
Max Wind Speed 16 mph    
Max Gust Speed 21 mph    
Visibility 10 miles    
Events Rain    
T = Trace of Precipitation, MM = Missing Value Source: NWS Daily Summary

Daily Weather History Graph

Daily Weather History Graph

Search for Another Location

Airport or City:

Trip Planner

Search our weather history database for the weather conditions in past years. The results will help you decide how hot, cold, wet, or windy it might be!

Date:

Astronomy

Oct. 19, 2013 Rise Set
Actual Time 10:07 AM AKDT 7:24 PM AKDT
Civil Twilight 9:16 AM AKDT 8:15 PM AKDT
Nautical Twilight 8:20 AM AKDT 9:11 PM AKDT
Astronomical Twilight 7:24 AM AKDT 10:07 PM AKDT
Moon 7:27 PM AKDT (10/19) 11:25 AM AKDT (10/19)
Length of Visible Light 10h 58m
Length of Day
9h 17m
Full, 99% of the Moon is Illuminated
Oct 19
Full
Oct 26
Last Quarter
Nov 3
New
Nov 9
First Quarter
Nov 17
Full

Hourly Weather History & Observations

Time (AKDT) Temp. Windchill Dew Point Humidity Pressure Visibility Wind Dir Wind Speed Gust Speed Precip Events Conditions
12:53 AM 41.0 °F 33.9 °F 39.0 °F 93% 29.12 in 10.0 mi East 12.7 mph - 0.07 in Rain Light Rain
1:18 AM 41.0 °F 34.3 °F 39.2 °F 93% 29.12 in 10.0 mi ESE 11.5 mph - 0.00 in   Overcast
1:53 AM 41.0 °F 34.7 °F 39.0 °F 93% 29.12 in 10.0 mi East 10.4 mph - 0.00 in   Overcast
2:51 AM 41.0 °F 36.4 °F 39.2 °F 93% 29.12 in 10.0 mi East 6.9 mph - N/A   Overcast
2:53 AM 41.0 °F 35.8 °F 39.0 °F 93% 29.12 in 10.0 mi East 8.1 mph - N/A   Overcast
3:44 AM 41.0 °F 34.7 °F 39.2 °F 93% 29.12 in 10.0 mi East 10.4 mph - N/A   Overcast
3:53 AM 39.9 °F 33.9 °F 39.0 °F 97% 29.12 in 7.0 mi East 9.2 mph - 0.00 in Rain Light Rain
4:53 AM 39.9 °F 34.5 °F 39.0 °F 97% 29.12 in 10.0 mi East 8.1 mph - 0.01 in   Overcast
5:16 AM 39.2 °F 33.6 °F 39.2 °F 100% 29.12 in 10.0 mi East 8.1 mph - 0.00 in Rain Light Rain
5:53 AM 39.9 °F 34.5 °F 39.0 °F 97% 29.12 in 9.0 mi ENE 8.1 mph - 0.00 in Rain Light Rain
6:53 AM 39.9 °F 33.9 °F 39.0 °F 97% 29.12 in 10.0 mi East 9.2 mph - 0.00 in   Overcast
7:53 AM 39.9 °F 32.9 °F 39.0 °F 97% 29.11 in 10.0 mi East 11.5 mph - 0.00 in   Overcast
8:53 AM 39.9 °F 33.4 °F 37.9 °F 93% 29.11 in 10.0 mi ENE 10.4 mph - 0.01 in Rain Light Rain
9:53 AM 39.9 °F 32.9 °F 37.9 °F 93% 29.11 in 10.0 mi ENE 11.5 mph - 0.00 in Rain Light Rain
10:53 AM 39.9 °F 32.9 °F 37.0 °F 89% 29.10 in 10.0 mi ENE 11.5 mph - 0.00 in Rain Light Rain
11:53 AM 41.0 °F 33.5 °F 37.9 °F 89% 29.10 in 10.0 mi ENE 13.8 mph - 0.00 in Rain Light Rain
12:53 PM 41.0 °F 34.3 °F 37.9 °F 89% 29.11 in 10.0 mi East 11.5 mph - 0.00 in Rain Light Rain
1:53 PM 42.1 °F 34.9 °F 39.0 °F 89% 29.11 in 10.0 mi East 13.8 mph - 0.00 in Rain Light Rain
2:20 PM 42.8 °F 35.4 °F 39.2 °F 87% 29.10 in 10.0 mi East 15.0 mph - 0.00 in Rain Light Rain
2:53 PM 43.0 °F 36.0 °F 39.0 °F 86% 29.11 in 10.0 mi East 13.8 mph - 0.00 in Rain Light Rain
3:53 PM 43.0 °F 35.7 °F 37.9 °F 82% 29.11 in 10.0 mi East 15.0 mph - 0.00 in Rain Light Rain
4:53 PM 43.0 °F 35.4 °F 37.9 °F 82% 29.11 in 10.0 mi East 16.1 mph - 0.00 in   Overcast
5:53 PM 43.0 °F 36.0 °F 37.9 °F 82% 29.12 in 10.0 mi East 13.8 mph - N/A   Overcast
6:45 PM 42.8 °F 36.6 °F 37.4 °F 81% 29.12 in 10.0 mi East 11.5 mph - N/A   Overcast
6:51 PM 42.8 °F 37.0 °F 37.4 °F 81% 29.12 in 10.0 mi East 10.4 mph - N/A   Overcast
6:53 PM 42.1 °F 35.2 °F 37.9 °F 85% 29.12 in 10.0 mi East 12.7 mph - N/A   Overcast
7:53 PM 41.0 °F 34.3 °F 37.9 °F 89% 29.13 in 10.0 mi East 11.5 mph - N/A   Overcast
8:53 PM 41.0 °F 34.3 °F 39.0 °F 93% 29.14 in 10.0 mi ENE 11.5 mph - 0.00 in Rain Light Rain
9:27 PM 41.0 °F 34.7 °F 39.2 °F 93% 29.14 in 10.0 mi ENE 10.4 mph - 0.00 in   Overcast
9:53 PM 41.0 °F 34.7 °F 39.0 °F 93% 29.15 in 10.0 mi ENE 10.4 mph - 0.00 in   Overcast
10:19 PM 41.0 °F 34.3 °F 39.2 °F 93% 29.15 in 10.0 mi ENE 11.5 mph - N/A   Overcast
10:53 PM 41.0 °F 33.9 °F 39.0 °F 93% 29.16 in 10.0 mi ENE 12.7 mph - 0.00 in Rain Light Rain
11:26 PM 41.0 °F 33.9 °F 39.2 °F 93% 29.17 in 10.0 mi ENE 12.7 mph - 0.00 in Rain Light Rain
11:41 PM 41.0 °F 34.3 °F 39.2 °F 93% 29.17 in 9.0 mi ENE 11.5 mph - 0.01 in Rain Light Rain
11:53 PM 41.0 °F 34.3 °F 39.0 °F 93% 29.17 in 10.0 mi ENE 11.5 mph - 0.01 in Rain Light Rain